Weather History for MYNN - April, 2013

Change the Weather History Date:

Thursday, April 25, 2013

  Actual Average Record
Temperature  
Mean Temperature 78 °F -  
Max Temperature 84 °F 84 °F 89 °F (2011)
Min Temperature 71 °F 69 °F 55 °F (1998)
Cooling Degree Days 12    
Growing Degree Days 28 (Base 50)    
Moisture  
Dew Point 63 °F    
Average Humidity 63    
Maximum Humidity 83    
Minimum Humidity 44    
Precipitation  
Precipitation 0.00 in 0.14 in - ()
Sea Level Pressure  
Sea Level Pressure 30.13 in    
Wind  
Wind Speed 6 mph ()    
Max Wind Speed 14 mph    
Max Gust Speed -    
Visibility 6.7 miles    
Events      
Averages and records for this station are not official NWS values.
T = Trace of Precipitation, MM = Missing Value Source: Averaged Metar Reports

Daily Weather History Graph

Daily Weather History Graph

Search for Another Location

Airport or City:

Trip Planner

Search our weather history database for the weather conditions in past years. The results will help you decide how hot, cold, wet, or windy it might be!

Date:

Astronomy

Apr. 25, 2013 Rise Set
Actual Time 6:38 AM EDT 7:37 PM EDT
Civil Twilight 6:14 AM EDT 8:01 PM EDT
Nautical Twilight 5:46 AM EDT 8:29 PM EDT
Astronomical Twilight 5:18 AM EDT 8:58 PM EDT
Moon 7:44 PM EDT (4/25) 6:19 AM EDT (4/25)
Length of Visible Light 13h 46m
Length of Day
12h 58m
Full, 100% of the Moon is Illuminated
Apr 25
Full
Apr 25
Full
May 2
Last Quarter
May 9
New
May 18
First Quarter

Hourly Weather History & Observations

Time (EDT) Temp. Heat Index Dew Point Humidity Pressure Visibility Wind Dir Wind Speed Gust Speed Precip Events Conditions
12:00 AM 75.2 °F - 64.4 °F 69% 30.12 in 6.2 mi NE 5.8 mph - N/A   Scattered Clouds
1:00 AM 73.4 °F - 64.4 °F 73% 30.11 in 6.2 mi NNE 6.9 mph - N/A   Scattered Clouds
2:00 AM 74 °F - 64 °F 65% 30.09 in 9 mi ENE 5.8 mph - -   Scattered Clouds
2:00 AM 73.4 °F - 64.4 °F 73% 30.09 in 6.2 mi ENE 5.8 mph - N/A   Partly Cloudy
3:00 AM 73.4 °F - 62.6 °F 69% 30.07 in 6.2 mi ENE 6.9 mph - N/A   Scattered Clouds
4:00 AM 73.4 °F - 62.6 °F 69% 30.07 in 6.2 mi NE 3.5 mph - N/A   Scattered Clouds
5:00 AM 72 °F - 63 °F 65% 30.07 in 9 mi ENE 3.5 mph - -   Scattered Clouds
5:00 AM 71.6 °F - 60.8 °F 69% 30.07 in 6.2 mi ENE 3.5 mph - N/A   Partly Cloudy
6:00 AM 73.4 °F - 60.8 °F 65% 30.08 in 6.2 mi ENE 3.5 mph - N/A   Partly Cloudy
7:00 AM 71.6 °F - 60.8 °F 69% 30.09 in 6.2 mi NE 3.5 mph - N/A   Partly Cloudy
8:00 AM 74 °F - 69 °F 81% 30.12 in 9 mi ENE 4.6 mph - -   Scattered Clouds
8:00 AM 75.2 °F - 69.8 °F 83% 30.12 in 6.2 mi ENE 4.6 mph - N/A   Partly Cloudy
9:00 AM 75.2 °F - 60.8 °F 61% 30.14 in 6.2 mi ENE 5.8 mph - N/A   Scattered Clouds
10:00 AM 75.2 °F - 60.8 °F 61% 30.16 in 6.2 mi ENE 10.4 mph - N/A   Scattered Clouds
11:00 AM 79 °F - 62 °F 46% 30.17 in 9 mi East 9.2 mph - -   Partly Cloudy
11:00 AM 78.8 °F - 62.6 °F 57% 30.16 in 6.2 mi East 9.2 mph - N/A   Scattered Clouds
12:00 PM 78.8 °F - 62.6 °F 57% 30.16 in 6.2 mi ENE 6.9 mph - N/A   Scattered Clouds
1:00 PM 80.6 °F 81.8 °F 62.6 °F 54% 30.15 in 6.2 mi ENE 9.2 mph - N/A   Partly Cloudy
2:00 PM 80.6 °F 81.8 °F 62.6 °F 54% 30.14 in 6.2 mi NNE 9.2 mph - N/A   Scattered Clouds
3:00 PM 80.6 °F 81.8 °F 62.6 °F 54% 30.14 in 6.2 mi ENE 9.2 mph - N/A   Scattered Clouds
4:00 PM 80.6 °F 81.5 °F 60.8 °F 51% 30.13 in 6.2 mi NE 11.5 mph - N/A   Scattered Clouds
5:00 PM 80 °F - 62 °F 44% 30.14 in 9 mi NE 11.5 mph - -   Scattered Clouds
5:00 PM 78.8 °F - 62.6 °F 57% 30.14 in 6.2 mi NE 11.5 mph - N/A   Partly Cloudy
6:00 PM 78.8 °F - 62.6 °F 57% 30.14 in 6.2 mi NE 13.8 mph - N/A   Scattered Clouds
7:00 PM 77.0 °F - 64.4 °F 65% 30.14 in 6.2 mi NE 11.5 mph - N/A   Scattered Clouds
8:00 PM 76 °F - 64 °F 58% 30.15 in 8 mi NE 9.2 mph - -   Partly Cloudy
8:00 PM 75.2 °F - 64.4 °F 69% 30.15 in 6.2 mi NE 9.2 mph - N/A   Partly Cloudy
9:00 PM 73.4 °F - 62.6 °F 69% 30.17 in 6.2 mi NE 6.9 mph - N/A   Partly Cloudy
10:00 PM 73.4 °F - 62.6 °F 69% 30.18 in 6.2 mi NE 11.5 mph - N/A   Partly Cloudy
11:00 PM 73.4 °F - 62.6 °F 69% 30.19 in 6.2 mi ENE 11.5 mph - N/A   Partly Cloudy